Satellite: NOAA-11
Catalog number: 19531
Epoch time: 07122.30588078
Element set: 0640
Inclination: 098.8096 deg
RA of node: 212.0403 deg
Eccentricity: 0.0011954
Arg of perigee: 157.7906 deg
Mean anomaly: 202.3819 deg
Mean motion: 14.14843764 rev/day
Decay rate: 1.80e-06 rev/day^2
Epoch rev: 95966
Checksum: 310
Satellite: NOAA-12
Catalog number: 21263
Epoch time: 07122.61000120
Element set: 0136
Inclination: 098.7514 deg
RA of node: 119.9279 deg
Eccentricity: 0.0011944
Arg of perigee: 237.8052 deg
Mean anomaly: 122.1989 deg
Mean motion: 14.25526967 rev/day
Decay rate: -7.4e-07 rev/day^2
Epoch rev: 82975
Checksum: 300
Satellite: MET-3/5
Catalog number: 21655
Epoch time: 07122.97049297
Element set: 0296
Inclination: 082.5514 deg
RA of node: 034.8823 deg
Eccentricity: 0.0013196
Arg of perigee: 327.4127 deg
Mean anomaly: 032.6176 deg
Mean motion: 13.17010709 rev/day
Decay rate: 5.1e-07 rev/day^2
Epoch rev: 75545
Checksum: 299
Satellite: MET-2/21
Catalog number: 22782
Epoch time: 07123.38908751
Element set: 814
Inclination: 082.5461 deg
RA of node: 077.4513 deg
Eccentricity: 0.0022744
Arg of perigee: 006.3201 deg
Mean anomaly: 353.8245 deg
Mean motion: 13.83616395 rev/day
Decay rate: -8.0e-07 rev/day^2
Epoch rev: 69032
Checksum: 292
Satellite: OKEAN-4
Catalog number: 23317
Epoch time: 07122.55358308
Element set: 0251
Inclination: 082.5407 deg
RA of node: 339.1156 deg
Eccentricity: 0.0023614
Arg of perigee: 045.9182 deg
Mean anomaly: 314.3982 deg
Mean motion: 14.82496091 rev/day
Decay rate: 2.18e-06 rev/day^2
Epoch rev: 67729
Checksum: 302
Satellite: NOAA-14
Catalog number: 23455
Epoch time: 07122.78361334
Element set: 0620
Inclination: 098.9912 deg
RA of node: 188.7199 deg
Eccentricity: 0.0008885
Arg of perigee: 223.5657 deg
Mean anomaly: 136.4784 deg
Mean motion: 14.13715745 rev/day
Decay rate: 8.5e-07 rev/day^2
Epoch rev: 63622
Checksum: 333
Satellite: SICH-1
Catalog number: 23657
Epoch time: 07122.42786067
Element set: 0054
Inclination: 082.5244 deg
RA of node: 120.1639 deg
Eccentricity: 0.0025191
Arg of perigee: 037.2534 deg
Mean anomaly: 323.0458 deg
Mean motion: 14.81476534 rev/day
Decay rate: 2.75e-06 rev/day^2
Epoch rev: 62925
Checksum: 290
Satellite: NOAA-15
Catalog number: 25338
Epoch time: 07123.50357221
Element set: 979
Inclination: 098.5286 deg
RA of node: 121.4479 deg
Eccentricity: 0.0011007
Arg of perigee: 154.9102 deg
Mean anomaly: 205.2609 deg
Mean motion: 14.24638542 rev/day
Decay rate: 2.1e-07 rev/day^2
Epoch rev: 46632
Checksum: 285
Satellite: RESURS
Catalog number: 25394
Epoch time: 07122.96225656
Element set: 0648
Inclination: 098.4468 deg
RA of node: 179.2762 deg
Eccentricity: 0.0001561
Arg of perigee: 001.0285 deg
Mean anomaly: 359.0897 deg
Mean motion: 14.24133817 rev/day
Decay rate: 6.0e-08 rev/day^2
Epoch rev: 45791
Checksum: 314
Satellite: FENGYUN1
Catalog number: 25730
Epoch time: 07123.70675394
Element set: 92
Inclination: 098.6879 deg
RA of node: 109.2650 deg
Eccentricity: 0.0019317
Arg of perigee: 254.7386 deg
Mean anomaly: 105.1637 deg
Mean motion: 14.07467441 rev/day
Decay rate: 2.15e-06 rev/day^2
Epoch rev: 41121
Checksum: 296
Satellite: OKEAN-0
Catalog number: 25860
Epoch time: 07121.57845750
Element set: 0041
Inclination: 097.7308 deg
RA of node: 126.0069 deg
Eccentricity: 0.0001373
Arg of perigee: 102.4031 deg
Mean anomaly: 257.7338 deg
Mean motion: 14.73447894 rev/day
Decay rate: 8.5e-07 rev/day^2
Epoch rev: 41863
Checksum: 293
Satellite: NOAA-16
Catalog number: 26536
Epoch time: 07122.64013022
Element set: 0392
Inclination: 099.1133 deg
RA of node: 098.7960 deg
Eccentricity: 0.0009843
Arg of perigee: 304.9313 deg
Mean anomaly: 055.0964 deg
Mean motion: 14.12422375 rev/day
Decay rate: 1.12e-06 rev/day^2
Epoch rev: 34067
Checksum: 279
Satellite: NOAA-17
Catalog number: 27453
Epoch time: 07122.77262156
Element set: 0404
Inclination: 098.5815 deg
RA of node: 193.1587 deg
Eccentricity: 0.0011261
Arg of perigee: 222.0577 deg
Mean anomaly: 137.9711 deg
Mean motion: 14.23874107 rev/day
Decay rate: -6.0e-08 rev/day^2
Epoch rev: 25225
Checksum: 292
Satellite: NOAA-18
Catalog number: 28654
Epoch time: 07122.80134117
Element set: 0941
Inclination: 098.8260 deg
RA of node: 064.8510 deg
Eccentricity: 0.0015059
Arg of perigee: 039.7526 deg
Mean anomaly: 320.4713 deg
Mean motion: 14.11059917 rev/day
Decay rate: 7.3e-07 rev/day^2
Epoch rev: 10045
Checksum: 283
/EX
SB KEPS @ AMSAT $ORB07123.M
Orbital Elements 07123.MISC
HR AMSAT ORBITAL ELEMENTS FOR MANNED AND MISCELLANEOUS SATELLITES
FROM WA5QGD FORT WORTH,TX May 3, 2007
Send SUBSCRIBE KEPS/UNSUBSCRIBE KEPS to majordomo at amsat.org only
BID: ORB07123.M
TO ALL RADIO AMATEURS BT
Satellite: HUBBLE
Catalog number: 20580
Epoch time: 07123.63581523
Element set: 865
Inclination: 028.4659 deg
RA of node: 120.6303 deg
Eccentricity: 0.0003456
Arg of perigee: 349.7776 deg
Mean anomaly: 010.2732 deg
Mean motion: 15.00231520 rev/day
Decay rate: 4.53e-06 rev/day^2
Epoch rev: 73326
Checksum: 266
Satellite: UARS
Catalog number: 21701
Epoch time: 07122.94749003
Element set: 0060
Inclination: 056.9724 deg
RA of node: 150.2044 deg
Eccentricity: 0.0099699
Arg of perigee: 104.3075 deg
Mean anomaly: 256.9080 deg
Mean motion: 15.47759405 rev/day
Decay rate: 6.717e-05 rev/day^2
Epoch rev: 85874
Checksum: 314
Satellite: PO-34
Catalog number: 25520
Epoch time: 07122.97868305
Element set: 0730
Inclination: 028.4599 deg
RA of node: 051.3212 deg
Eccentricity: 0.0005722
Arg of perigee: 125.8767 deg
Mean anomaly: 234.2361 deg
Mean motion: 15.16983366 rev/day
Decay rate: 6.92e-06 rev/day^2
Epoch rev: 47065
Checksum: 310
Satellite: ISS
Catalog number: 25544
Epoch time: 07124.11384417
Element set: 140
Inclination: 051.6343 deg
RA of node: 331.6004 deg
Eccentricity: 0.0010596
Arg of perigee: 141.3056 deg
Mean anomaly: 312.4533 deg
Mean motion: 15.77531181 rev/day
Decay rate: 1.8576e-04 rev/day^2
Epoch rev: 48381
Checksum: 266
Satellite: OO-38
Catalog number: 26063
Epoch time: 07123.43154868
Element set: 900
Inclination: 100.2265 deg
RA of node: 117.7871 deg
Eccentricity: 0.0036515
Arg of perigee: 286.0428 deg
Mean anomaly: 073.6739 deg
Mean motion: 14.35803893 rev/day
Decay rate: 1.5e-07 rev/day^2
Epoch rev: 38062
Checksum: 302
Satellite: UWE-1
Catalog number: 28892
Epoch time: 07121.72987645
Element set: 0736
Inclination: 098.1354 deg
RA of node: 019.2847 deg
Eccentricity: 0.0016247
Arg of perigee: 257.7881 deg
Mean anomaly: 102.1496 deg
Mean motion: 14.59494916 rev/day
Decay rate: 1.76e-06 rev/day^2
Epoch rev: 08043
Checksum: 338
Satellite: CO-58
Catalog number: 28895
Epoch time: 07123.42394900
Element set: 717
Inclination: 098.1415 deg
RA of node: 021.1429 deg
Eccentricity: 0.0016898
Arg of perigee: 250.7698 deg
Mean anomaly: 109.1659 deg
Mean motion: 14.59544053 rev/day
Decay rate: 1.51e-06 rev/day^2
Epoch rev: 8056
Checksum: 327
Satellite: NCUBE2
Catalog number: 28897
Epoch time: 07122.68115021
Element set: 241
Inclination: 098.1366 deg
RA of node: 020.3729 deg
Eccentricity: 0.0016060
Arg of perigee: 256.3135 deg
Mean anomaly: 103.6284 deg
Mean motion: 14.59705285 rev/day
Decay rate: 1.70e-06 rev/day^2
Epoch rev: 7273
Checksum: 279
Satellite: NMARS
Catalog number: 29662
Epoch time: 07123.76661677
Element set: 255
Inclination: 051.6270 deg
RA of node: 317.1225 deg
Eccentricity: 0.0007050
Arg of perigee: 244.9936 deg
Mean anomaly: 115.0336 deg
Mean motion: 16.27061286 rev/day
Decay rate: 1.771625e-02 rev/day^2
Epoch rev: 2122
Checksum: 286
Satellite: FCAL
Catalog number: 29667
Epoch time: 07123.82060316
Element set: 127
Inclination: 051.6371 deg
RA of node: 326.7014 deg
Eccentricity: 0.0015610
Arg of perigee: 166.8629 deg
Mean anomaly: 193.2782 deg
Mean motion: 15.86590893 rev/day
Decay rate: 2.0142e-04 rev/day^2
Epoch rev: 2095
Checksum: 294
Satellite: FALCON
Catalog number: 30776
Epoch time: 07122.40977818
Element set: 0046
Inclination: 035.4324 deg
RA of node: 130.1655 deg
Eccentricity: 0.0000872
Arg of perigee: 031.7595 deg
Mean anomaly: 328.3174 deg
Mean motion: 15.02691488 rev/day
Decay rate: 4.18e-06 rev/day^2
Epoch rev: 00816
Checksum: 287
Satellite: MAST
Catalog number: 31126
Epoch time: 07123.43817764
Element set: 22
Inclination: 098.0854 deg
RA of node: 198.1180 deg
Eccentricity: 0.0095455
Arg of perigee: 163.4552 deg
Mean anomaly: 196.9777 deg
Mean motion: 14.53335617 rev/day
Decay rate: 3.94e-06 rev/day^2
Epoch rev: 235
Checksum: 305
Satellite: CAPE1
Catalog number: 31130
Epoch time: 07122.90338267
Element set: 0017
Inclination: 098.0833 deg
RA of node: 197.5635 deg
Eccentricity: 0.0103473
Arg of perigee: 165.0355 deg
Mean anomaly: 195.3913 deg
Mean motion: 14.51845069 rev/day
Decay rate: 2.17e-06 rev/day^2
Epoch rev: 00204
Checksum: 276
/EX
More information about the Keps
mailing list